Weather History for Big Rapids, MI

Change the Weather History Date:

Saturday, August 31, 2013

  Actual Average Record
Temperature  
Mean Temperature 70 °F -  
Max Temperature 78 °F 77 °F 89 °F (2012)
Min Temperature 61 °F 52 °F 41 °F (1999)
Cooling Degree Days 4    
Growing Degree Days 20 (Base 50)    
Moisture  
Dew Point 63 °F    
Average Humidity 77    
Maximum Humidity 100    
Minimum Humidity 52    
Precipitation  
Precipitation 0.00 in - - ()
Sea Level Pressure  
Sea Level Pressure 29.86 in    
Wind  
Wind Speed 4 mph (NE)    
Max Wind Speed 10 mph    
Max Gust Speed -    
Visibility 10 miles    
Events      
Averages and records for this station are not official NWS values.
T = Trace of Precipitation, MM = Missing Value Source: NWS Daily Summary

Daily Weather History Graph

Daily Weather History Graph

Search for Another Location

Airport:

Trip Planner

Search our weather history database for the weather conditions in past years. The results will help you decide how hot, cold, wet, or windy it might be!

Date:

Astronomy

Aug. 31, 2013 Rise Set
Actual Time 7:04 AM EDT 8:18 PM EDT
Civil Twilight 6:35 AM EDT 8:48 PM EDT
Nautical Twilight 5:59 AM EDT 9:23 PM EDT
Astronomical Twilight 5:21 AM EDT 10:01 PM EDT
Moon 2:27 AM EDT (8/31) 5:21 PM EDT (8/31)
Length of Visible Light 14h 13m
Length of Day
13h 14m
Waning Crescent, 21% of the Moon is Illuminated
Aug 31
Waning Crescent
Sep 5
New
Sep 12
First Quarter
Sep 19
Full
Sep 26
Last Quarter

Hourly Weather History & Observations

Time (EDT) Temp. Dew Point Humidity Pressure Visibility Wind Dir Wind Speed Gust Speed Precip Events Conditions
12:14 AM 69.4 °F 63.7 °F 82% 29.83 in 10.0 mi NNW 6.9 mph - N/A   Overcast
12:35 AM 68.5 °F 64.0 °F 85% 29.83 in 10.0 mi WNW 6.9 mph - N/A   Mostly Cloudy
12:55 AM 67.6 °F 65.5 °F 93% 29.83 in 10.0 mi NW 3.5 mph - N/A   Scattered Clouds
1:15 AM 68.2 °F 66.4 °F 94% 29.84 in 10.0 mi NW 3.5 mph - N/A   Mostly Cloudy
1:35 AM 67.6 °F 66.6 °F 96% 29.83 in 10.0 mi Calm Calm - N/A   Overcast
1:55 AM 68.0 °F 67.1 °F 97% 29.83 in 10.0 mi WNW 5.8 mph - N/A   Overcast
2:15 AM 68.0 °F 66.7 °F 96% 29.83 in 10.0 mi North 4.6 mph - N/A   Overcast
2:35 AM 68.0 °F 66.6 °F 95% 29.83 in 10.0 mi North 6.9 mph - N/A   Scattered Clouds
2:54 AM 66.2 °F 66.0 °F 99% 29.84 in 10.0 mi West 3.5 mph - N/A   Scattered Clouds
3:15 AM 66.6 °F 66.4 °F 99% 29.84 in 10.0 mi WNW 3.5 mph - N/A   Overcast
3:35 AM 67.1 °F 66.9 °F 99% 29.83 in 10.0 mi Calm Calm - N/A   Overcast
3:54 AM 67.1 °F 67.1 °F 100% 29.83 in 10.0 mi Calm Calm - N/A   Overcast
4:15 AM 67.5 °F 67.1 °F 99% 29.83 in 10.0 mi Calm Calm - N/A   Overcast
4:34 AM 67.5 °F 67.5 °F 100% 29.84 in 10.0 mi Calm Calm - N/A   Overcast
4:55 AM 68.2 °F 67.3 °F 97% 29.84 in 10.0 mi Calm Calm - N/A   Overcast
5:15 AM 68.0 °F 67.3 °F 98% 29.85 in 10.0 mi NNW 3.5 mph - N/A   Overcast
5:34 AM 68.2 °F 67.3 °F 97% 29.86 in 10.0 mi WNW 6.9 mph - N/A   Overcast
5:55 AM 68.5 °F 67.1 °F 95% 29.86 in 10.0 mi WNW 4.6 mph - N/A   Overcast
6:15 AM 68.5 °F 67.1 °F 95% 29.87 in 10.0 mi WNW 6.9 mph - N/A   Overcast
6:34 AM 68.4 °F 67.1 °F 96% 29.87 in 10.0 mi Calm Calm - N/A   Overcast
6:55 AM 68.7 °F 67.1 °F 95% 29.87 in 10.0 mi Calm Calm - N/A   Overcast
7:15 AM 68.9 °F 66.7 °F 93% 29.87 in 10.0 mi NNW 3.5 mph - N/A   Overcast
7:35 AM 68.2 °F 66.6 °F 95% 29.87 in 10.0 mi NW 5.8 mph - N/A   Overcast
7:55 AM 68.0 °F 66.9 °F 96% 29.88 in 10.0 mi WNW 5.8 mph - N/A   Overcast
8:15 AM 68.2 °F 66.0 °F 93% 29.88 in 10.0 mi NNE 8.1 mph - N/A   Overcast
8:35 AM 68.5 °F 65.7 °F 90% 29.87 in 10.0 mi NE 9.2 mph - N/A   Overcast
8:55 AM 69.3 °F 64.2 °F 84% 29.87 in 10.0 mi NE 5.8 mph - N/A   Scattered Clouds
9:15 AM 70.2 °F 61.9 °F 75% 29.88 in 10.0 mi NE 4.6 mph - N/A   Clear
9:35 AM 71.4 °F 61.2 °F 70% 29.88 in 10.0 mi NE 5.8 mph - N/A   Scattered Clouds
9:55 AM 72.5 °F 61.0 °F 67% 29.89 in 10.0 mi NE 5.8 mph - N/A   Mostly Cloudy
10:15 AM 72.9 °F 60.8 °F 66% 29.88 in 10.0 mi NE 5.8 mph - N/A   Mostly Cloudy
10:35 AM 73.0 °F 61.0 °F 66% 29.88 in 10.0 mi ENE 6.9 mph - N/A   Mostly Cloudy
10:55 AM 72.0 °F 60.3 °F 67% 29.88 in 10.0 mi ENE 6.9 mph - N/A   Mostly Cloudy
11:14 AM 73.9 °F 60.4 °F 63% 29.89 in 10.0 mi North 6.9 mph - N/A   Scattered Clouds
11:35 AM 72.5 °F 60.1 °F 65% 29.88 in 10.0 mi NE 5.8 mph - N/A   Mostly Cloudy
11:55 AM 74.5 °F 59.7 °F 60% 29.88 in 10.0 mi East 6.9 mph - N/A   Overcast
12:14 PM 73.8 °F 59.5 °F 61% 29.88 in 10.0 mi East 10.4 mph - N/A   Overcast
12:35 PM 76.1 °F 59.9 °F 57% 29.88 in 10.0 mi ENE 5.8 mph - N/A   Overcast
12:55 PM 75.4 °F 59.5 °F 58% 29.88 in 10.0 mi SE 6.9 mph - N/A   Overcast
1:14 PM 75.4 °F 59.4 °F 57% 29.88 in 10.0 mi Calm Calm - N/A   Overcast
1:35 PM 77.4 °F 59.7 °F 54% 29.89 in 10.0 mi East 5.8 mph - N/A   Overcast
1:55 PM 76.3 °F 59.4 °F 56% 29.88 in 10.0 mi East 6.9 mph - N/A   Overcast
2:14 PM 76.8 °F 59.4 °F 55% 29.88 in 10.0 mi East 6.9 mph - N/A   Overcast
2:35 PM 76.5 °F 59.5 °F 56% 29.88 in 10.0 mi East 6.9 mph - N/A   Mostly Cloudy
2:55 PM 77.7 °F 60.1 °F 54% 29.88 in 10.0 mi Calm Calm - N/A   Scattered Clouds
3:15 PM 77.0 °F 58.6 °F 53% 29.88 in 10.0 mi Calm Calm - N/A   Mostly Cloudy
3:35 PM 76.8 °F 59.5 °F 55% 29.88 in 10.0 mi East 4.6 mph - N/A   Overcast
3:55 PM 76.3 °F 59.7 °F 56% 29.88 in 10.0 mi ESE 5.8 mph - N/A   Scattered Clouds
4:14 PM 77.7 °F 60.1 °F 54% 29.87 in 10.0 mi SE 3.5 mph - N/A   Scattered Clouds
4:35 PM 78.8 °F 59.9 °F 52% 29.86 in 10.0 mi East 4.6 mph - N/A   Overcast
4:55 PM 77.7 °F 59.5 °F 53% 29.85 in 10.0 mi ENE 3.5 mph - N/A   Scattered Clouds
5:15 PM 78.1 °F 60.3 °F 54% 29.85 in 10.0 mi East 6.9 mph - N/A   Scattered Clouds
5:35 PM 77.7 °F 60.1 °F 54% 29.85 in 10.0 mi NE 5.8 mph - N/A   Clear
5:55 PM 77.9 °F 60.1 °F 54% 29.84 in 10.0 mi East 5.8 mph - N/A   Clear
6:15 PM 77.5 °F 60.3 °F 55% 29.84 in 10.0 mi ESE 8.1 mph - N/A   Clear
6:35 PM 76.8 °F 59.9 °F 56% 29.84 in 10.0 mi East 5.8 mph - N/A   Clear
6:55 PM 76.5 °F 59.9 °F 56% 29.83 in 10.0 mi ESE 5.8 mph - N/A   Clear
7:15 PM 76.1 °F 60.3 °F 58% 29.83 in 10.0 mi ESE 5.8 mph - N/A   Clear
7:35 PM 75.2 °F 60.6 °F 60% 29.82 in 10.0 mi East 5.8 mph - N/A   Clear
7:55 PM 74.3 °F 60.8 °F 63% 29.82 in 10.0 mi ESE 5.8 mph - N/A   Clear
8:15 PM 72.5 °F 60.8 °F 67% 29.83 in 10.0 mi SSW 6.9 mph - N/A   Clear
8:35 PM 70.5 °F 61.7 °F 74% 29.83 in 10.0 mi Calm Calm - N/A   Clear
8:55 PM 69.4 °F 61.3 °F 75% 29.84 in 10.0 mi Calm Calm - N/A   Clear
9:15 PM 67.6 °F 61.2 °F 80% 29.84 in 10.0 mi Calm Calm - N/A   Clear
9:35 PM 66.7 °F 61.3 °F 83% 29.84 in 10.0 mi Calm Calm - N/A   Clear
9:55 PM 65.3 °F 61.0 °F 86% 29.84 in 10.0 mi Calm Calm - N/A   Clear
10:15 PM 65.1 °F 59.9 °F 83% 29.85 in 10.0 mi Calm Calm - N/A   Clear
10:35 PM 63.3 °F 60.8 °F 91% 29.87 in 7.0 mi West 3.5 mph - N/A   Clear
10:54 PM 64.0 °F 62.4 °F 94% 29.88 in 7.0 mi Calm Calm - N/A   Clear
11:15 PM 63.0 °F 62.1 °F 97% 29.89 in 7.0 mi Calm Calm - N/A   Clear
11:35 PM 61.9 °F 61.9 °F 100% 29.88 in 5.0 mi Calm Calm - N/A   Clear
11:54 PM 61.9 °F 61.9 °F 100% 29.88 in 5.0 mi Calm Calm - N/A   Clear